This demonstration page uses our WeatherBlox Daily Observations layout. Learn more.

Left ArrowRight Arrow

38.20091, -84.87328

Hourly Observations for July 7, 2017

Temp ( °F °C ) Dew Point ( °F °C ) Humidity (%) Winds ( mph kmh ) Pressure ( in mb ) Visibility ( mi km ) Precip ( " mm )
12:53 am 00:53 Clear 69 20.6 66 18.9 90 90 WSW 3 6 29.97 1015 10 16 0.00 0.00
1:53 am 01:53 Clear 69 20.6 67 19.4 93 93 Calm 29.98 1015 7 11 0.00 0.00
2:19 am 02:19 Mostly Cloudy 70 21.1 67 19.4 90 90 W 3 6 29.97 1015 9 14 0.00 0.00
2:53 am 02:53 Mostly Cloudy 70 21.1 67 19.4 90 90 WNW 3 6 29.99 1016 10 16 0.00 0.00
3:20 am 03:20 Partly Cloudy 70 21.1 67 19.4 90 90 W 3 6 29.97 1015 10 16 0.00 0.00
3:53 am 03:53 Clear 69 20.6 66 18.9 90 90 Calm 29.98 1015 8 13 0.00 0.00
4:23 am 04:23 Mostly Clear with Mist and Fog 68 20 65 18.3 90 90 S 3 6 29.97 1015 2 3 0.00 0.00
4:27 am 04:27 Mostly Cloudy with Mist and Fog 68 20 65 18.3 90 90 SSW 3 6 29.97 1015 1 2 0.00 0.00
4:34 am 04:34 Mostly Cloudy with Fog 68 20 66 18.9 93 93 SSW 5 7 29.97 1015 0 0 0.00 0.00
4:53 am 04:53 Mostly Cloudy with Fog 69 20.6 66 18.9 90 90 SW 5 7 29.97 1015 0 0 0.00 0.00
5:53 am 05:53 Mostly Cloudy with Fog 69 20.6 66 18.9 90 90 SSW 5 7 29.97 1015 0 0 0.00 0.00
6:53 am 06:53 Mostly Cloudy with Fog 69 20.6 67 19.4 93 93 SW 6 9 29.99 1016 0 0 0.00 0.00
7:40 am 07:40 Cloudy with Mist and Fog 69 20.6 67 19.4 93 93 S 5 7 30.00 1016 1 2 0.00 0.00
7:53 am 07:53 Cloudy with Mist and Fog 70 21.1 67 19.4 90 90 S 6 9 30.00 1016 2 3 0.00 0.00
8:05 am 08:05 Cloudy with Mist and Fog 70 21.1 67 19.4 90 90 S 5 7 30.00 1016 4 6 0.00 0.00
8:33 am 08:33 Cloudy with Mist and Fog 71 21.7 68 20 90 90 SSW 5 7 30.00 1016 3 4 0.00 0.00
8:43 am 08:43 Cloudy with Mist and Fog 71 21.7 69 20.6 94 94 SW 5 7 30.00 1016 3 5 0.00 0.00
8:53 am 08:53 Cloudy with Mist and Fog 72 22.2 69 20.6 91 91 SW 7 11 30.00 1016 4 6 0.00 0.00
9:53 am 09:53 Mostly Cloudy with Mist and Fog 74 23.3 70 21.1 88 88 SW 8 13 30.00 1016 6 10 0.00 0.00
10:07 am 10:07 Cloudy 75 23.9 71 21.7 88 88 SW 7 11 30.00 1016 7 11 0.00 0.00
10:32 am 10:32 Mostly Cloudy 77 25 71 21.7 82 82 SW 9 15 29.97 1015 9 14 0.00 0.00
10:53 am 10:53 Mostly Sunny 79 26.1 71 21.7 77 77 SW 9 15 29.99 1016 9 14 0.00 0.00
11:28 am 11:28 Mostly Cloudy 80 26.7 72 22.2 76 76 SW 9 15 30.00 1016 10 16 0.00 0.00
11:53 am 11:53 Partly Cloudy 81 27.2 72 22.2 74 74 WSW 8 13 29.99 1016 10 16 0.00 0.00
12:53 pm 12:53 Partly Cloudy 83 28.3 72 22.2 70 70 SW 10 17 29.98 1015 10 16 0.00 0.00
1:53 pm 13:53 Mostly Sunny 84 28.9 71 21.7 65 65 SSW 14 22 29.96 1015 10 16 0.00 0.00
2:53 pm 14:53 Partly Cloudy 86 30 71 21.7 61 61 SSW 16 26 29.93 1014 10 16 0.00 0.00
3:53 pm 15:53 Partly Cloudy 85 29.4 71 21.7 63 63 SW 12 19 29.90 1013 10 16 0.00 0.00
4:53 pm 16:53 Partly Cloudy 86 30 71 21.7 61 61 SW 13 20 29.89 1012 10 16 0.00 0.00
5:53 pm 17:53 Partly Cloudy 86 30 70 21.1 59 59 SW 15 24 29.88 1012 10 16 0.00 0.00
6:53 pm 18:53 Mostly Sunny 85 29.4 71 21.7 63 63 SSW 12 19 29.86 1011 10 16 0.00 0.00
7:53 pm 19:53 Sunny 83 28.3 71 21.7 67 67 SW 10 17 29.86 1011 10 16 0.00 0.00
8:53 pm 20:53 Cloudy with Nearby Thunderstorms 75 23.9 64 17.8 69 69 N 14 22 29.92 1013 10 16 0.00 0.00
9:12 pm 21:12 Cloudy with Strong Thunderstorms 71 21.7 65 18.3 81 81 NNE 9 15 29.94 1014 3 4 0.13 3.30
9:14 pm 21:14 Cloudy with Strong Thunderstorms 70 21.1 65 18.3 84 84 N 9 15 29.91 1013 2 2 0.23 5.84
9:16 pm 21:16 Cloudy with Strong Thunderstorms 69 20.6 65 18.3 87 87 NNE 10 17 29.91 1013 1 2 0.33 8.38
9:25 pm 21:25 Cloudy with Thunderstorms 69 20.6 65 18.3 87 87 VRB 6 9 29.94 1014 2 3 0.36 9.14
9:35 pm 21:35 Cloudy with Strong Thunderstorms 69 20.6 65 18.3 87 87 VRB 5 7 29.94 1014 1 2 0.54 13.72
9:41 pm 21:41 Cloudy with Strong Thunderstorms 68 20 65 18.3 90 90 VRB 3 6 29.94 1014 1 1 0.69 17.53
9:46 pm 21:46 Cloudy with Strong Thunderstorms 68 20 65 18.3 90 90 SE 6 9 29.91 1013 1 2 0.73 18.54
9:50 pm 21:50 Mostly Cloudy with Thunderstorms 68 20 64 18 88 88 SSE 7 11 29.91 1013 3 4 0.73 18.54
9:53 pm 21:53 Mostly Cloudy with Thunderstorms 69 20.6 66 18.9 90 90 SSE 10 17 29.91 1013 5 8 0.73 18.54
10:13 pm 22:13 Mostly Clear with Nearby Thunderstorms 69 20.6 66 18.9 90 90 S 9 15 29.88 1012 10 16 0.01 0.25
10:21 pm 22:21 Mostly Clear 69 20.6 65 18.3 87 87 S 10 17 29.88 1012 10 16 0.01 0.25
10:53 pm 22:53 Mostly Clear with Light Rain 69 20.6 65 18.3 87 87 SW 7 11 29.91 1013 10 16 0.01 0.25
11:44 pm 23:44 Mostly Cloudy 69 20.6 66 18.9 90 90 NNW 3 6 29.91 1013 10 16 0.04 1.02
11:53 pm 23:53 Mostly Cloudy 69 20.6 66 18.9 90 90 SSW 5 7 29.91 1013 10 16 0.04 1.02

Powered by AerisWeather